Regional Weather Roundup
Issued by NWS Green Bay, WI

Home | Current Version | Previous Version | Text Only | Print | Product List | Glossary On
Versions: 1 2 3 4 5 6 7 8 9 10 11 12 13 14 15 16 17 18 19 20 21 22 23 24 25 26 27 28 29 30 31 32 33 34 35 36 37 38 39 40 41 42 43 44 45 46 47 48 49 50
000
ASUS43 KGRB 271311
RWRGRB

NORTH-CENTRAL AND NORTHEAST WISCONSIN REGIONAL WEATHER ROUNDUP
NATIONAL WEATHER SERVICE GREEN BAY WI
800 AM CDT FRI MAY 27 2016

WIZ005-009-010>012-018-019-271400-
NORTH CENTRAL WISCONSIN

CITY           SKY/WX    TMP DP  RH WIND       PRES   REMARKS
IRONWOOD       CLOUDY    57  57 100 CALM      29.86S
MANITOWISH WTR NOT AVBL
ARBOR VITAE    MOSUNNY   64  58  80 E3        29.89S
EAGLE RIVER      N/A     61  61  99 CALM      29.90S
LAND O LAKES   MOSUNNY   60  60 100 CALM      29.91F
RHINELANDER    SUNNY     63  58  83 E5        29.90F
PHILLIPS       CLOUDY    58  56  95 CALM      29.88R
ANTIGO         SUNNY     67  60  78 CALM      29.90S
TOMAHAWK       SUNNY     62  61  95 CALM      29.89S
MERRILL        SUNNY     61  59  94 CALM      29.89S
$$

WIZ013-073-271400-
NORTHEAST WISCONSIN

CITY           SKY/WX    TMP DP  RH WIND       PRES   REMARKS
IRON MOUNTAIN  SUNNY     65  59  81 CALM      29.88F
MARINETTE      SUNNY     64  58  80 E6        29.89F
OCONTO         SUNNY     66  66 100 CALM      29.86F
$$

WIZ017-030-035>037-045-271400-
CENTRAL WISCONSIN

CITY           SKY/WX    TMP DP  RH WIND       PRES   REMARKS
MEDFORD        CLOUDY    62  58  87 E5        29.87S
WAUSAU         MOSUNNY   66  59  78 CALM      29.87R
MOSINEE        PTSUNNY   63  61  94 E3        29.89S
MARSHFIELD       N/A     64  58  80 NE3       29.87R
WISC RAPIDS    CLOUDY    65  59  81 SE3       29.89R
STEVENS POINT  CLOUDY    62  59  90 CALM      29.88F
WAUPACA        CLOUDY    66  66 100 N7        29.84F
SHAWANO        SUNNY     67  61  82 CALM      29.89S
CLINTONVILLE   MOSUNNY   64  59  82 CALM      29.88S
WAUTOMA        NOT AVBL
$$

WIZ038-039-048-051-271400-
FOX VALLEY

CITY           SKY/WX    TMP DP  RH WIND       PRES   REMARKS
NWS GREEN BAY  SUNNY     71  61  70 CALM      29.87F
APPLETON       PTSUNNY   68  61  77 CALM      29.86F
OSHKOSH        CLOUDY    70  60  70 NE7       29.85F
FOND DU LAC    CLOUDY    70  63  78 E3        29.86S
$$

WIZ022-050-052-271400-
EAST CENTRAL WISCONSIN

CITY           SKY/WX    TMP DP  RH WIND       PRES   REMARKS
EPHRAIM        FAIR      62  56  80 SE3       29.89S
STURGEON BAY   NOT AVBL
MANITOWOC      MOSUNNY   64  58  80 N5        29.89S
SHEBOYGAN      CLOUDY    69  61  75 NE7       29.86S
$$

LMZ563-521-522-541>543-271400-
LAKESHORE

STATION/POSITION TIME  TEMP    WIND        PRES    VSBY  WAVE
                       AIR SEA DIR/SP/G                  HT/PER
                 (UTC) (F)     (DEG/KT/KT) (MB)    (MI)  (FT/S)
SHEBOYGAN LKSHOR 1300   52      80/  5/  7 1012.0R
KEWAUNEE LKSHORE 1200   55      20/  2/  3 1011.6S
ALGOMA MARINA    1217             CALM       N/A
N MID LAKE BUOY  1250   46 45  320/  6/  6 1013.1R         1/ 4
SISTER BAY LKSHO 1205   60        CALM       N/A
MENOMINEE LKSHOR 1200   57      10/  3/  4 1011.1R
$$



USA.gov is the U.S. government's official web portal to all federal, state and local government web resources and services.